TimeCET,TemperatureF,Dew PointF,Humidity,Sea Level PressureIn,VisibilityMPH,Wind Direction,Wind SpeedMPH,Gust SpeedMPH,PrecipitationIn,Events,Conditions,WindDirDegrees,DateUTC
12:15 AM,48.2,41.0,76,29.95,6.2,North,2.3,-,N/A,,Partly Cloudy,360,2012-10-29 23:15:00
12:45 AM,48.2,41.0,76,29.92,6.2,North,3.5,-,N/A,,Partly Cloudy,360,2012-10-29 23:45:00
12:55 AM,48.2,41.0,76,29.92,6.2,North,3.5,-,N/A,,Partly Cloudy,360,2012-10-29 23:55:00
1:00 AM,47,42,76,29.94,9,North,3.5,,,,Scattered Clouds,0,2012-10-30 00:00:00
1:15 AM,46.4,41.0,81,29.92,6.2,North,3.5,-,N/A,,Partly Cloudy,360,2012-10-30 00:15:00
1:45 AM,46.4,41.0,81,29.92,6.2,ENE,2.3,-,N/A,,Partly Cloudy,60,2012-10-30 00:45:00
1:55 AM,46.4,41.0,81,29.92,6.2,ENE,2.3,-,N/A,,Partly Cloudy,60,2012-10-30 00:55:00
2:15 AM,44.6,39.2,81,29.92,6.2,NE,2.3,-,N/A,,Partly Cloudy,40,2012-10-30 01:15:00
2:45 AM,44.6,39.2,81,29.89,6.2,Calm,Calm,-,N/A,,Partly Cloudy,0,2012-10-30 01:45:00
2:55 AM,44.6,39.2,81,29.89,6.2,Calm,Calm,-,N/A,,Partly Cloudy,0,2012-10-30 01:55:00
3:15 AM,44.6,39.2,81,29.89,6.2,Calm,Calm,-,N/A,,Partly Cloudy,0,2012-10-30 02:15:00
3:45 AM,44.6,39.2,81,29.89,6.2,NNW,2.3,-,N/A,,Partly Cloudy,330,2012-10-30 02:45:00
3:55 AM,44.6,39.2,81,29.89,6.2,NNW,2.3,-,N/A,,Partly Cloudy,330,2012-10-30 02:55:00
4:00 AM,45,39,72,29.89,12,NW,2.3,,,,Scattered Clouds,320,2012-10-30 03:00:00
4:15 AM,44.6,39.2,81,29.89,6.2,NW,3.5,-,N/A,,Partly Cloudy,320,2012-10-30 03:15:00
4:45 AM,42.8,39.2,87,29.89,6.2,NW,4.6,-,N/A,,Partly Cloudy,320,2012-10-30 03:45:00
4:55 AM,42.8,39.2,87,29.89,6.2,NW,4.6,-,N/A,,Partly Cloudy,320,2012-10-30 03:55:00
5:15 AM,42.8,39.2,87,29.89,6.2,NW,4.6,-,N/A,,Partly Cloudy,320,2012-10-30 04:15:00
5:45 AM,41.0,37.4,87,29.89,6.2,NNW,4.6,-,N/A,,Partly Cloudy,340,2012-10-30 04:45:00
5:55 AM,41.0,37.4,87,29.89,6.2,NNW,4.6,-,N/A,,Partly Cloudy,340,2012-10-30 04:55:00
6:15 AM,41.0,37.4,87,29.89,6.2,NNW,4.6,-,N/A,,Partly Cloudy,330,2012-10-30 05:15:00
6:45 AM,41.0,37.4,87,29.89,-9999.0,NNW,4.6,-,N/A,,Clear,330,2012-10-30 05:45:00
6:55 AM,41.0,37.4,87,29.89,-9999.0,NNW,4.6,-,N/A,,Clear,330,2012-10-30 05:55:00
7:00 AM,41,37,80,29.90,9,NNW,4.6,,,,Clear,330,2012-10-30 06:00:00
7:15 AM,41.0,37.4,87,29.89,-9999.0,NNW,6.9,-,N/A,,Clear,340,2012-10-30 06:15:00
7:45 AM,42.8,39.2,87,29.89,-9999.0,NNW,3.5,-,N/A,,Clear,340,2012-10-30 06:45:00
7:55 AM,42.8,39.2,87,29.89,-9999.0,NNW,3.5,-,N/A,,Clear,340,2012-10-30 06:55:00
8:15 AM,44.6,41.0,87,29.89,-9999.0,Calm,Calm,-,N/A,,Clear,0,2012-10-30 07:15:00
8:45 AM,46.4,42.8,87,29.89,-9999.0,WNW,3.5,-,N/A,,Clear,300,2012-10-30 07:45:00
8:55 AM,46.4,42.8,87,29.89,-9999.0,WNW,3.5,-,N/A,,Clear,300,2012-10-30 07:55:00
9:15 AM,48.2,39.2,71,29.89,6.2,WNW,4.6,-,N/A,,Partly Cloudy,290,2012-10-30 08:15:00
9:45 AM,51.8,41.0,67,29.86,6.2,WNW,4.6,-,N/A,,Partly Cloudy,300,2012-10-30 08:45:00
9:55 AM,51.8,41.0,67,29.86,6.2,WNW,4.6,-,N/A,,Partly Cloudy,300,2012-10-30 08:55:00
10:00 AM,52,42,58,29.88,9,WNW,4.6,,,,Scattered Clouds,300,2012-10-30 09:00:00
10:15 AM,55.4,44.6,67,29.86,6.2,SW,3.5,-,N/A,,Partly Cloudy,230,2012-10-30 09:15:00
10:45 AM,57.2,46.4,67,29.86,6.2,SW,4.6,-,N/A,,Partly Cloudy,220,2012-10-30 09:45:00
10:55 AM,57.2,46.4,67,29.86,6.2,SW,4.6,-,N/A,,Mostly Cloudy,220,2012-10-30 09:55:00
11:15 AM,57.2,41.0,55,29.86,6.2,SW,4.6,-,N/A,,Scattered Clouds,230,2012-10-30 10:15:00
11:45 AM,59.0,37.4,45,29.86,6.2,South,4.6,-,N/A,,Scattered Clouds,190,2012-10-30 10:45:00
11:55 AM,59.0,37.4,45,29.86,6.2,South,4.6,-,N/A,,Scattered Clouds,190,2012-10-30 10:55:00
12:15 PM,59.0,41.0,51,29.83,6.2,South,4.6,-,N/A,,Scattered Clouds,190,2012-10-30 11:15:00
12:45 PM,60.8,42.8,52,29.83,6.2,SSW,4.6,-,N/A,,Scattered Clouds,200,2012-10-30 11:45:00
12:55 PM,60.8,42.8,52,29.83,6.2,SSW,4.6,-,N/A,,Scattered Clouds,200,2012-10-30 11:55:00
1:00 PM,62,43,38,29.84,9,SSW,4.6,,,,Partly Cloudy,200,2012-10-30 12:00:00
1:15 PM,62.6,46.4,55,29.80,6.2,South,3.5,-,N/A,,Scattered Clouds,170,2012-10-30 12:15:00
1:45 PM,64.4,46.4,52,29.80,6.2,SE,9.2,-,N/A,,Partly Cloudy,140,2012-10-30 12:45:00
2:15 PM,64.4,48.2,56,29.77,6.2,SE,11.5,-,N/A,,Partly Cloudy,140,2012-10-30 13:15:00
2:45 PM,66.2,50.0,56,29.77,6.2,ESE,11.5,-,N/A,,Partly Cloudy,120,2012-10-30 13:45:00
2:55 PM,66.2,50.0,56,29.77,6.2,ESE,11.5,-,N/A,,Partly Cloudy,120,2012-10-30 13:55:00
3:15 PM,64.4,48.2,56,29.77,6.2,ESE,15.0,-,N/A,,Partly Cloudy,110,2012-10-30 14:15:00
3:45 PM,64.4,48.2,56,29.74,6.2,ESE,11.5,-,N/A,,Partly Cloudy,110,2012-10-30 14:45:00
3:55 PM,64.4,48.2,56,29.74,6.2,ESE,11.5,-,N/A,,Partly Cloudy,110,2012-10-30 14:55:00
4:00 PM,64,49,48,29.76,9,ESE,11.5,,,,Scattered Clouds,110,2012-10-30 15:00:00
4:15 PM,64.4,48.2,56,29.74,6.2,ESE,12.7,-,N/A,,Partly Cloudy,110,2012-10-30 15:15:00
4:45 PM,64.4,50.0,59,29.74,6.2,ESE,12.7,-,N/A,,Partly Cloudy,110,2012-10-30 15:45:00
4:55 PM,64.4,50.0,59,29.74,6.2,ESE,12.7,-,N/A,,Partly Cloudy,110,2012-10-30 15:55:00
5:15 PM,62.6,48.2,59,29.71,6.2,East,8.1,-,N/A,,Scattered Clouds,90,2012-10-30 16:15:00
5:45 PM,60.8,46.4,59,29.74,6.2,ENE,5.8,-,N/A,,Scattered Clouds,60,2012-10-30 16:45:00
5:55 PM,60.8,46.4,59,29.74,6.2,ENE,5.8,-,N/A,,Scattered Clouds,60,2012-10-30 16:55:00
6:15 PM,60.8,48.2,63,29.74,6.2,ENE,8.1,-,N/A,,Scattered Clouds,70,2012-10-30 17:15:00
6:45 PM,59.0,50.0,72,29.71,6.2,ENE,8.1,-,N/A,,Scattered Clouds,70,2012-10-30 17:45:00
6:55 PM,59.0,50.0,72,29.71,6.2,ENE,8.1,-,N/A,,Scattered Clouds,70,2012-10-30 17:55:00
7:00 PM,59,49,61,29.74,9,ENE,8.1,,,,Mostly Cloudy,70,2012-10-30 18:00:00
7:15 PM,59.0,48.2,67,29.71,6.2,ENE,8.1,-,N/A,,Scattered Clouds,70,2012-10-30 18:15:00
7:45 PM,59.0,50.0,72,29.71,6.2,East,8.1,-,N/A,,Partly Cloudy,80,2012-10-30 18:45:00
7:55 PM,59.0,50.0,72,29.71,6.2,East,8.1,-,N/A,,Partly Cloudy,80,2012-10-30 18:55:00
8:15 PM,59.0,48.2,67,29.71,6.2,East,8.1,-,N/A,,Partly Cloudy,80,2012-10-30 19:15:00
8:45 PM,59.0,50.0,72,29.71,6.2,East,9.2,-,N/A,,Partly Cloudy,90,2012-10-30 19:45:00
8:55 PM,59.0,50.0,72,29.71,6.2,East,9.2,-,N/A,,Partly Cloudy,90,2012-10-30 19:55:00
9:15 PM,59.0,50.0,72,29.68,6.2,East,15.0,-,N/A,,Mostly Cloudy,80,2012-10-30 20:15:00
9:45 PM,59.0,50.0,72,29.68,6.2,East,13.8,-,N/A,,Mostly Cloudy,90,2012-10-30 20:45:00
9:55 PM,59.0,50.0,72,29.68,6.2,East,13.8,-,N/A,,Mostly Cloudy,90,2012-10-30 20:55:00
10:00 PM,59,50,64,29.70,6,East,13.8,,,,Mostly Cloudy,90,2012-10-30 21:00:00
10:15 PM,59.0,50.0,72,29.65,6.2,ENE,11.5,-,N/A,,Scattered Clouds,70,2012-10-30 21:15:00
10:45 PM,59.0,50.0,72,29.65,6.2,ENE,10.4,-,N/A,,Scattered Clouds,70,2012-10-30 21:45:00
10:55 PM,59.0,50.0,72,29.65,6.2,ENE,10.4,-,N/A,,Scattered Clouds,70,2012-10-30 21:55:00
11:15 PM,59.0,50.0,72,29.62,6.2,East,8.1,-,N/A,,Partly Cloudy,90,2012-10-30 22:15:00
11:45 PM,59.0,50.0,72,29.62,6.2,East,4.6,-,N/A,,Scattered Clouds,80,2012-10-30 22:45:00
11:55 PM,59.0,50.0,72,29.62,6.2,East,4.6,-,N/A,,Scattered Clouds,80,2012-10-30 22:55:00